Location: Dappach
(48.9767°N, 9.6998°E)
Time: 21:38:43
(UTC+00:00)

COSMOS 2428 - Pass Details

Date: 18 August 2024
Orbit: 842 x 857 km, 70.9° (Epoch: 09 September)

Event Time Altitude Azimuth Distance (km) Brightness Sun altitude
Exits shadow 22:39:57 21° 82° (E) 1,827 4.4 -27.5°
Drops below altitude 10° 22:43:00 10° 52° (NE) 2,488 5.4 -27.6°
Sets 22:45:56 0° 38° (NE) 3,432 6.4 -27.7°
